| time (UTC) | temp C | wind direction | speed KPH | gust KPH | rain 1hr cm | rain 24hr cm | rain mn cm | humidity % | barometer mb |
| 20260509174524 | 13 | 250 | 0.0 | 1.6 | 0.08 | 0.20 | 0.20 | 92 | 1011.5 |
| 20260509173023 | 13 | 101 | 0.0 | 8.0 | 0.03 | 0.15 | 0.15 | 90 | 1011.5 |
| 20260509171523 | 13 | 244 | 0.0 | 8.0 | 0.00 | 0.13 | 0.13 | 89 | 1011.5 |
| 20260509170022 | 13 | 257 | 0.0 | 3.2 | 0.05 | 0.13 | 0.13 | 92 | 1011.5 |
| 20260509164533 | 13 | 199 | 0.0 | 1.6 | 0.10 | 0.13 | 0.13 | 92 | 1011.1 |
| 20260509163021 | 13 | 202 | 0.0 | 1.6 | 0.10 | 0.13 | 0.13 | 91 | 1011.2 |
| 20260509161521 | 13 | 264 | 1.6 | 4.8 | 0.13 | 0.13 | 0.13 | 89 | 1011.3 |
| 20260509160020 | 13 | 221 | 1.6 | 12.9 | 0.08 | 0.08 | 0.08 | 86 | 1011.6 |
| 20260509154519 | 14 | 261 | 4.8 | 9.7 | 0.03 | 0.03 | 0.03 | 86 | 1012.0 |
| 20260509153019 | 14 | 266 | 3.2 | 8.0 | 0.03 | 0.03 | 0.03 | 84 | 1012.1 |
| 20260509151518 | 14 | 227 | 4.8 | 9.7 | 0.00 | 0.00 | 0.00 | 84 | 1012.1 |
| 20260509150016 | 14 | 205 | 1.6 | 6.4 | 0.00 | 0.00 | 0.00 | 86 | 1012.0 |
| 20260509144515 | 13 | 197 | 0.0 | 9.7 | 0.00 | 0.00 | 0.00 | 85 | 1011.6 |
| 20260509143015 | 13 | 222 | 3.2 | 9.7 | 0.00 | 0.00 | 0.00 | 85 | 1011.7 |
| 20260509141514 | 14 | 199 | 4.8 | 11.3 | 0.00 | 0.00 | 0.00 | 82 | 1011.5 |
| 20260509140013 | 13 | 261 | 3.2 | 11.3 | 0.00 | 0.00 | 0.00 | 82 | 1011.3 |
| 20260509134513 | 13 | 209 | 4.8 | 11.3 | 0.00 | 0.00 | 0.00 | 81 | 1011.3 |
| 20260509133011 | 13 | 207 | 1.6 | 9.7 | 0.00 | 0.00 | 0.00 | 82 | 1011.3 |
| 20260509131508 | 13 | 202 | 4.8 | 9.7 | 0.00 | 0.00 | 0.00 | 83 | 1011.4 |
| 20260509130006 | 13 | 90 | 0.0 | 3.2 | 0.00 | 0.00 | 0.00 | 84 | 1011.2 |
| 20260509124502 | 12 | 219 | 0.0 | 1.6 | 0.00 | 0.00 | 0.00 | 88 | 1011.3 |
| 20260509123004 | 11 | 219 | 0.0 | 0.0 | 0.00 | 0.00 | 0.00 | 89 | 1011.4 |
| 20260509121612 | 11 | 219 | 0.0 | 0.0 | 0.00 | 0.00 | 0.00 | 89 | 1011.4 |
| 20260509120113 | 11 | 219 | 0.0 | 1.6 | 0.00 | 0.00 | 0.00 | 89 | 1011.4 |
| 20260509114559 | 11 | 88 | 0.0 | 4.8 | 0.00 | 0.00 | 0.00 | 89 | 1011.3 |
| 20260509113059 | 11 | 217 | 0.0 | 0.0 | 0.00 | 0.00 | 0.00 | 88 | 1011.3 |
| 20260509111558 | 10 | 217 | 0.0 | 0.0 | 0.00 | 0.00 | 0.00 | 89 | 1011.3 |
| 20260509104558 | 10 | 182 | 0.0 | 0.0 | 0.00 | 0.00 | 0.00 | 90 | 1011.2 |
| 20260509103102 | 10 | 182 | 0.0 | 0.0 | 0.00 | 0.00 | 0.00 | 89 | 1011.1 |
| 20260509101600 | 10 | 182 | 0.0 | 0.0 | 0.00 | 0.00 | 0.00 | 88 | 1011.1 |
| 20260509100055 | 10 | 182 | 0.0 | 0.0 | 0.00 | 0.00 | 0.00 | 88 | 1010.9 |
| 20260509094552 | 10 | 182 | 0.0 | 0.0 | 0.00 | 0.00 | 0.00 | 87 | 1011.1 |
| 20260509093054 | 10 | 182 | 0.0 | 0.0 | 0.00 | 0.00 | 0.00 | 87 | 1011.3 |
| 20260509091614 | 10 | 182 | 0.0 | 0.0 | 0.00 | 0.00 | 0.00 | 86 | 1011.1 |
| 20260509090050 | 11 | 182 | 0.0 | 0.0 | 0.00 | 0.00 | 0.00 | 84 | 1011.1 |
| 20260509084549 | 10 | 182 | 0.0 | 3.2 | 0.00 | 0.00 | 0.00 | 85 | 1011.3 |
| 20260509083051 | 10 | 185 | 0.0 | 0.0 | 0.00 | 0.00 | 0.00 | 85 | 1011.5 |
| 20260509081547 | 10 | 185 | 0.0 | 1.6 | 0.00 | 0.00 | 0.00 | 86 | 1011.3 |
| 20260509080051 | 10 | 185 | 0.0 | 0.0 | 0.00 | 0.00 | 0.00 | 85 | 1011.6 |
| 20260509074552 | 10 | 185 | 0.0 | 0.0 | 0.00 | 0.00 | 0.00 | 85 | 1011.5 |
| 20260509073114 | 10 | 185 | 0.0 | 0.0 | 0.00 | 0.00 | 0.00 | 85 | 1011.6 |
| 20260509071544 | 10 | 185 | 0.0 | 0.0 | 0.00 | 0.00 | 0.00 | 85 | 1011.5 |
| 20260509070048 | 10 | 185 | 0.0 | 1.6 | 0.00 | 0.00 | 0.00 | 84 | 1011.4 |
| 20260509064542 | 10 | 185 | 0.0 | 0.0 | 0.00 | 0.00 | 0.00 | 85 | 1011.5 |
| 20260509063040 | 10 | 185 | 0.0 | 0.0 | 0.00 | 0.00 | 0.00 | 84 | 1011.6 |
| 20260509061539 | 11 | 185 | 0.0 | 0.0 | 0.00 | 0.00 | 0.00 | 82 | 1011.9 |
| 20260509060046 | 11 | 185 | 0.0 | 0.0 | 0.00 | 0.00 | 0.00 | 81 | 1012.0 |
| 20260509054533 | 11 | 185 | 0.0 | 0.0 | 0.00 | 0.00 | 0.00 | 79 | 1012.3 |
| 20260509053034 | 11 | 185 | 0.0 | 0.0 | 0.00 | 0.00 | 0.00 | 79 | 1012.5 |
| 20260509051528 | 11 | 185 | 0.0 | 0.0 | 0.00 | 0.00 | 0.00 | 78 | 1012.5 |
| 20260509050028 | 11 | 185 | 0.0 | 0.0 | 0.00 | 0.00 | 0.00 | 76 | 1012.6 |
| 20260509044534 | 11 | 185 | 0.0 | 0.0 | 0.00 | 0.00 | 0.00 | 77 | 1012.7 |
| 20260509043033 | 11 | 185 | 0.0 | 0.0 | 0.00 | 0.00 | 0.00 | 77 | 1012.4 |
| 20260509041524 | 12 | 185 | 0.0 | 0.0 | 0.00 | 0.00 | 0.00 | 75 | 1012.4 |
| 20260509040020 | 11 | 185 | 0.0 | 0.0 | 0.00 | 0.00 | 0.00 | 75 | 1012.7 |
| 20260509034527 | 12 | 185 | 0.0 | 1.6 | 0.00 | 0.00 | 0.00 | 76 | 1012.7 |
| 20260509033019 | 12 | 185 | 0.0 | 1.6 | 0.00 | 0.00 | 0.00 | 73 | 1012.7 |
| 20260509031519 | 12 | 185 | 0.0 | 0.0 | 0.00 | 0.00 | 0.00 | 70 | 1012.8 |
| 20260509030018 | 11 | 185 | 0.0 | 0.0 | 0.00 | 0.00 | 0.00 | 72 | 1013.0 |
| 20260509024517 | 12 | 185 | 0.0 | 0.0 | 0.00 | 0.00 | 0.00 | 74 | 1012.7 |
| 20260509023018 | 12 | 185 | 0.0 | 0.0 | 0.00 | 0.00 | 0.00 | 72 | 1012.8 |
| 20260509021518 | 12 | 185 | 0.0 | 0.0 | 0.00 | 0.00 | 0.00 | 73 | 1012.9 |
| 20260509020016 | 12 | 185 | 0.0 | 0.0 | 0.00 | 0.00 | 0.00 | 70 | 1012.7 |
| 20260509014515 | 12 | 185 | 0.0 | 0.0 | 0.00 | 0.00 | 0.00 | 67 | 1012.5 |
| 20260509013018 | 12 | 185 | 0.0 | 0.0 | 0.00 | 0.00 | 0.00 | 68 | 1012.3 |
| 20260509011515 | 13 | 185 | 0.0 | 0.0 | 0.00 | 0.00 | 0.00 | 62 | 1012.1 |
| 20260509010019 | 13 | 185 | 0.0 | 0.0 | 0.00 | 0.00 | 0.00 | 60 | 1012.0 |
| 20260509004513 | 15 | 184 | 0.0 | 0.0 | 0.00 | 0.00 | 0.00 | 57 | 1011.7 |
| 20260509003020 | 15 | 184 | 0.0 | 0.0 | 0.00 | 0.00 | 0.00 | 57 | 1011.5 |
| 20260509001512 | 15 | 202 | 0.0 | 3.2 | 0.00 | 0.00 | 0.00 | 56 | 1011.3 |
| 20260509000012 | 16 | 205 | 1.6 | 3.2 | 0.00 | 0.00 | 0.00 | 51 | 1011.1 |
| 20260508234511 | 16 | 218 | 0.0 | 3.2 | 0.00 | 0.00 | 0.00 | 51 | 1011.0 |
| 20260508233011 | 16 | 231 | 0.0 | 3.2 | 0.00 | 0.00 | 0.00 | 52 | 1010.9 |
| 20260508231510 | 17 | 206 | 1.6 | 3.2 | 0.00 | 0.00 | 0.00 | 45 | 1010.8 |
| 20260508230009 | 17 | 266 | 0.0 | 1.6 | 0.00 | 0.00 | 0.00 | 46 | 1010.7 |
| 20260508224609 | 17 | 201 | 0.0 | 11.3 | 0.00 | 0.00 | 0.00 | 44 | 1010.6 |
| 20260508223025 | 17 | 232 | 0.0 | 3.2 | 0.00 | 0.00 | 0.00 | 44 | 1010.7 |
| 20260508221508 | 17 | 218 | 1.6 | 12.9 | 0.00 | 0.00 | 0.00 | 44 | 1010.7 |
| 20260508220010 | 17 | 232 | 4.8 | 20.9 | 0.00 | 0.00 | 0.00 | 42 | 1010.7 |
| 20260508214508 | 17 | 261 | 0.0 | 6.4 | 0.00 | 0.00 | 0.00 | 43 | 1010.7 |
| 20260508213009 | 17 | 254 | 1.6 | 9.7 | 0.00 | 0.00 | 0.00 | 42 | 1010.7 |
| 20260508211506 | 18 | 213 | 6.4 | 27.4 | 0.00 | 0.00 | 0.00 | 40 | 1010.7 |
| 20260508210006 | 19 | 257 | 6.4 | 17.7 | 0.00 | 0.00 | 0.00 | 39 | 1010.6 |
| 20260508204510 | 18 | 162 | 8.0 | 19.3 | 0.00 | 0.00 | 0.00 | 40 | 1010.7 |
| 20260508203002 | 17 | 242 | 9.7 | 22.5 | 0.00 | 0.00 | 0.00 | 40 | 1011.0 |
| 20260508201601 | 17 | 345 | 3.2 | 19.3 | 0.00 | 0.00 | 0.00 | 41 | 1011.4 |
| 20260508200100 | 17 | 257 | 8.0 | 19.3 | 0.00 | 0.00 | 0.00 | 41 | 1011.2 |
| 20260508194616 | 18 | 265 | 3.2 | 16.1 | 0.00 | 0.00 | 0.00 | 40 | 1011.1 |
| 20260508193110 | 17 | 250 | 11.3 | 30.6 | 0.00 | 0.00 | 0.00 | 39 | 1011.4 |
| 20260508191601 | 17 | 246 | 12.9 | 22.5 | 0.00 | 0.00 | 0.00 | 39 | 1011.4 |
| 20260508190055 | 17 | 281 | 6.4 | 19.3 | 0.00 | 0.00 | 0.00 | 38 | 1011.4 |
| 20260508184607 | 17 | 267 | 6.4 | 19.3 | 0.00 | 0.00 | 0.00 | 42 | 1011.5 |
| 20260508183054 | 17 | 219 | 4.8 | 19.3 | 0.00 | 0.00 | 0.00 | 41 | 1011.7 |
| 20260508181600 | 17 | 271 | 6.4 | 22.5 | 0.00 | 0.00 | 0.00 | 41 | 1011.6 |
| 20260508180052 | 17 | 240 | 8.0 | 17.7 | 0.00 | 0.00 | 0.00 | 43 | 1011.7 |